QFA484 YBCG-YMML

Flight info

Callsign QFA484
Flight time 1h 56m
Altitude 36000
Route APAGI5/32 APAGI Q16 ISKIM Q35 DORSU H119 ML
Aircraft B738/M-SDE2E3FGHIRWXY/LB1

Departure

Time 2026-05-05 06:35
Airport Gold Coast Airport (YBCG)

Arrival

Time 2026-05-05 08:31
Airport Melbourne Airport (YMML)
Time Latitude Longitude Altitude Speed Heading
2026-05-05 05:51 -28.16667 153.51195 25 ft 0 kts 63°
2026-05-05 06:27 -28.16667 153.51194 25 ft 0 kts 63°
2026-05-05 06:28 -28.16692 153.51140 25 ft 0 kts 63°
2026-05-05 06:30 -28.16699 153.51149 25 ft 3 kts 153°
2026-05-05 06:30 -28.16727 153.51138 27 ft 5 kts 204°
2026-05-05 06:30 -28.16773 153.51146 25 ft 9 kts 152°
2026-05-05 06:30 -28.16822 153.51164 26 ft 9 kts 187°
2026-05-05 06:31 -28.16873 153.51102 24 ft 12 kts 228°
2026-05-05 06:31 -28.16939 153.51107 25 ft 10 kts 145°
2026-05-05 06:31 -28.17004 153.51151 24 ft 12 kts 149°
2026-05-05 06:31 -28.17075 153.51191 23 ft 12 kts 153°
2026-05-05 06:32 -28.17160 153.51244 23 ft 15 kts 149°
2026-05-05 06:32 -28.17258 153.51307 21 ft 17 kts 151°
2026-05-05 06:32 -28.17360 153.51373 21 ft 17 kts 149°
2026-05-05 06:32 -28.17458 153.51434 20 ft 16 kts 158°
2026-05-05 06:33 -28.17537 153.51428 20 ft 0 kts 216°
2026-05-05 06:33 -28.17538 153.51427 20 ft 2 kts 216°
2026-05-05 06:34 -28.17565 153.51390 20 ft 8 kts 241°
2026-05-05 06:34 -28.17587 153.51325 21 ft 8 kts 275°
2026-05-05 06:34 -28.17479 153.51234 21 ft 52 kts 332°
2026-05-05 06:34 -28.16922 153.50883 27 ft 130 kts 330°
2026-05-05 06:35 -28.15963 153.50293 322 ft 166 kts 334°
2026-05-05 06:35 -28.14910 153.49770 1210 ft 169 kts 352°
2026-05-05 06:35 -28.13698 153.49951 1868 ft 186 kts 26°
2026-05-05 06:35 -28.12653 153.50885 2532 ft 203 kts 56°
2026-05-05 06:36 -28.11943 153.52332 3134 ft 218 kts 65°
2026-05-05 06:36 -28.11397 153.53947 3816 ft 221 kts 76°
2026-05-05 06:36 -28.11017 153.55641 4550 ft 223 kts 78°
2026-05-05 06:36 -28.10675 153.57405 5098 ft 239 kts 84°
2026-05-05 06:37 -28.10976 153.59190 5916 ft 233 kts 123°
2026-05-05 06:37 -28.12161 153.60460 6476 ft 246 kts 152°
2026-05-05 06:37 -28.13840 153.61175 6805 ft 269 kts 166°
2026-05-05 06:37 -28.15696 153.61665 7561 ft 272 kts 168°
2026-05-05 06:38 -28.17514 153.62063 8685 ft 263 kts 169°
2026-05-05 06:38 -28.19327 153.62471 9413 ft 271 kts 168°
2026-05-05 06:38 -28.21241 153.62895 9831 ft 289 kts 170°
2026-05-05 06:38 -28.23271 153.63224 10367 ft 297 kts 180°
2026-05-05 06:39 -28.25253 153.62780 11380 ft 286 kts 206°
2026-05-05 06:39 -28.26815 153.61481 12433 ft 274 kts 231°
2026-05-05 06:39 -28.27915 153.59775 13452 ft 263 kts 238°
2026-05-05 06:39 -28.28910 153.58042 14186 ft 263 kts 240°
2026-05-05 06:40 -28.29892 153.56287 14795 ft 264 kts 241°
2026-05-05 06:40 -28.30877 153.54525 15421 ft 265 kts 241°
2026-05-05 06:40 -28.31870 153.52753 16042 ft 267 kts 242°
2026-05-05 06:40 -28.32870 153.50975 16663 ft 268 kts 242°
2026-05-05 06:41 -28.33880 153.49184 17280 ft 270 kts 243°
2026-05-05 06:41 -28.34879 153.47416 17922 ft 270 kts 243°
2026-05-05 06:41 -28.35912 153.45591 18518 ft 272 kts 244°
2026-05-05 06:41 -28.36922 153.43809 19074 ft 272 kts 244°
2026-05-05 06:42 -28.37947 153.41999 19629 ft 273 kts 244°
2026-05-05 06:42 -28.38979 153.40187 20115 ft 275 kts 244°
2026-05-05 06:42 -28.40040 153.38315 20249 ft 291 kts 244°
2026-05-05 06:42 -28.41151 153.36332 20372 ft 304 kts 244°
2026-05-05 06:43 -28.42313 153.34265 20473 ft 317 kts 244°
2026-05-05 06:43 -28.43532 153.32106 20572 ft 331 kts 244°
2026-05-05 06:43 -28.44799 153.29864 20660 ft 344 kts 244°
2026-05-05 06:43 -28.46118 153.27533 20769 ft 356 kts 243°
2026-05-05 06:44 -28.47481 153.25128 20844 ft 368 kts 243°
2026-05-05 06:44 -28.48888 153.22642 20919 ft 379 kts 243°
2026-05-05 06:44 -28.50330 153.20093 21050 ft 387 kts 243°
2026-05-05 06:44 -28.51798 153.17502 21295 ft 392 kts 243°
2026-05-05 06:45 -28.53276 153.14895 21737 ft 391 kts 243°
2026-05-05 06:45 -28.54745 153.12302 22179 ft 390 kts 243°
2026-05-05 06:45 -28.56217 153.09698 22492 ft 392 kts 244°
2026-05-05 06:45 -28.57695 153.07090 22779 ft 393 kts 244°
2026-05-05 06:46 -28.59169 153.04474 23073 ft 395 kts 244°
2026-05-05 06:46 -28.60654 153.01828 23449 ft 399 kts 244°
2026-05-05 06:46 -28.62142 152.99182 24046 ft 395 kts 244°
2026-05-05 06:46 -28.63595 152.96610 25012 ft 377 kts 245°
2026-05-05 06:47 -28.65012 152.94096 25507 ft 380 kts 245°
2026-05-05 06:47 -28.66431 152.91556 25565 ft 391 kts 245°
2026-05-05 06:47 -28.67904 152.88915 25746 ft 398 kts 245°
2026-05-05 06:47 -28.69394 152.86253 26095 ft 399 kts 245°
2026-05-05 06:48 -28.70888 152.83591 26589 ft 397 kts 246°
2026-05-05 06:48 -28.72369 152.80954 27125 ft 394 kts 246°
2026-05-05 06:48 -28.73838 152.78337 27643 ft 392 kts 247°
2026-05-05 06:48 -28.75300 152.75727 28167 ft 389 kts 247°
2026-05-05 06:49 -28.76825 152.73174 28600 ft 388 kts 247°
2026-05-05 06:49 -28.78259 152.70582 29050 ft 385 kts 249°
2026-05-05 06:49 -28.79656 152.67987 29565 ft 384 kts 249°
2026-05-05 06:49 -28.81064 152.65408 30118 ft 382 kts 249°
2026-05-05 06:50 -28.82477 152.62859 30584 ft 379 kts 249°
2026-05-05 06:50 -28.83888 152.60329 30948 ft 379 kts 249°
2026-05-05 06:50 -28.85335 152.57796 31036 ft 388 kts 246°
2026-05-05 06:50 -28.87005 152.55316 31091 ft 399 kts 242°
2026-05-05 06:51 -28.88803 152.52864 31142 ft 407 kts 241°
2026-05-05 06:51 -28.92545 152.47896 31265 ft 418 kts 240°
2026-05-05 06:52 -28.96356 152.42775 31363 ft 427 kts 241°
2026-05-05 06:52 -28.98272 152.40166 31477 ft 430 kts 241°
2026-05-05 06:52 -29.00185 152.37551 31731 ft 428 kts 241°
2026-05-05 06:52 -29.02090 152.34944 32056 ft 426 kts 242°
2026-05-05 06:53 -29.03959 152.32380 32309 ft 425 kts 242°
2026-05-05 06:53 -29.05853 152.29773 32413 ft 428 kts 242°
2026-05-05 06:53 -29.07749 152.27159 32658 ft 427 kts 242°
2026-05-05 06:53 -29.09639 152.24555 32978 ft 425 kts 242°
2026-05-05 06:54 -29.11524 152.21958 33224 ft 424 kts 242°
2026-05-05 06:54 -29.13408 152.19353 33332 ft 426 kts 242°
2026-05-05 06:54 -29.15292 152.16748 33636 ft 423 kts 242°
2026-05-05 06:54 -29.17158 152.14168 33989 ft 420 kts 243°
2026-05-05 06:55 -29.19026 152.11583 34140 ft 422 kts 243°
2026-05-05 06:55 -29.20886 152.09012 34460 ft 418 kts 243°
2026-05-05 06:55 -29.22738 152.06452 34670 ft 418 kts 243°
2026-05-05 06:55 -29.24587 152.03893 34943 ft 416 kts 243°
2026-05-05 06:56 -29.26425 152.01347 35206 ft 414 kts 243°
2026-05-05 06:56 -29.28256 151.98805 35403 ft 413 kts 243°
2026-05-05 06:56 -29.29467 151.97123 35526 ft 414 kts 243°
2026-05-05 06:56 -29.31912 151.93725 35809 ft 412 kts 243°
2026-05-05 06:57 -29.33731 151.91200 36085 ft 410 kts 243°
2026-05-05 06:57 -29.36753 151.86989 36124 ft 413 kts 243°
2026-05-05 06:58 -29.40398 151.81915 36130 ft 410 kts 243°
2026-05-05 06:58 -29.44010 151.76880 36148 ft 408 kts 243°
2026-05-05 06:59 -29.47604 151.71862 36134 ft 406 kts 243°
2026-05-05 06:59 -29.51514 151.67106 36131 ft 422 kts 232°
2026-05-05 06:59 -29.53928 151.65110 36126 ft 434 kts 225°
2026-05-05 07:00 -29.56638 151.63455 36150 ft 446 kts 219°
2026-05-05 07:00 -29.62377 151.60484 36143 ft 461 kts 215°
2026-05-05 07:01 -29.68129 151.57385 36147 ft 454 kts 220°
2026-05-05 07:01 -29.73691 151.54032 36129 ft 454 kts 221°
2026-05-05 07:02 -29.79219 151.50660 36129 ft 445 kts 221°
2026-05-05 07:02 -29.84677 151.47344 36133 ft 443 kts 221°
2026-05-05 07:03 -29.90128 151.44025 36142 ft 442 kts 221°
2026-05-05 07:03 -29.95559 151.40698 36137 ft 440 kts 223°
2026-05-05 07:04 -30.00783 151.37115 36125 ft 435 kts 225°
2026-05-05 07:04 -30.05934 151.33450 36141 ft 435 kts 225°
2026-05-05 07:05 -30.11117 151.29820 36131 ft 437 kts 224°
2026-05-05 07:05 -30.16350 151.26265 36127 ft 437 kts 223°
2026-05-05 07:06 -30.21602 151.22714 36121 ft 437 kts 223°
2026-05-05 07:06 -30.26851 151.19174 36121 ft 436 kts 223°
2026-05-05 07:07 -30.32088 151.15636 36135 ft 436 kts 223°
2026-05-05 07:07 -30.37315 151.12085 36126 ft 435 kts 223°
2026-05-05 07:08 -30.42525 151.08540 36126 ft 434 kts 223°
2026-05-05 07:08 -30.47724 151.04999 36130 ft 433 kts 223°
2026-05-05 07:09 -30.52917 151.01460 36142 ft 433 kts 223°
2026-05-05 07:09 -30.58112 150.97925 36145 ft 433 kts 223°
2026-05-05 07:10 -30.63313 150.94384 36138 ft 434 kts 223°
2026-05-05 07:10 -30.68481 150.90858 36136 ft 434 kts 224°
2026-05-05 07:11 -30.73686 150.87284 36148 ft 435 kts 223°
2026-05-05 07:11 -30.78894 150.83690 36144 ft 436 kts 223°
2026-05-05 07:12 -30.84108 150.80079 36147 ft 437 kts 223°
2026-05-05 07:12 -30.89336 150.76447 36138 ft 438 kts 223°
2026-05-05 07:13 -30.94568 150.72808 36159 ft 440 kts 222°
2026-05-05 07:13 -31.00004 150.69388 36163 ft 446 kts 220°
2026-05-05 07:14 -31.05530 150.66042 36152 ft 448 kts 219°
2026-05-05 07:14 -31.11080 150.62697 36155 ft 450 kts 219°
2026-05-05 07:15 -31.16652 150.59335 36147 ft 452 kts 219°
2026-05-05 07:15 -31.22188 150.55960 36136 ft 452 kts 219°
2026-05-05 07:16 -31.27761 150.52550 36141 ft 452 kts 219°
2026-05-05 07:16 -31.33333 150.49136 36139 ft 452 kts 219°
2026-05-05 07:17 -31.38891 150.45713 36156 ft 451 kts 219°
2026-05-05 07:17 -31.44158 150.41954 36109 ft 424 kts 238°
2026-05-05 07:17 -31.45800 150.39242 36162 ft 400 kts 251°
2026-05-05 07:18 -31.47109 150.36366 36141 ft 401 kts 251°
2026-05-05 07:18 -31.50110 150.30792 36132 ft 410 kts 244°
2026-05-05 07:19 -31.53745 150.25549 36163 ft 417 kts 239°
2026-05-05 07:19 -31.57689 150.20517 36148 ft 421 kts 237°
2026-05-05 07:20 -31.61734 150.15538 36154 ft 422 kts 236°
2026-05-05 07:20 -31.65788 150.10556 36155 ft 422 kts 237°
2026-05-05 07:21 -31.69842 150.05551 36141 ft 424 kts 237°
2026-05-05 07:21 -31.73867 150.00554 36155 ft 425 kts 236°
2026-05-05 07:22 -31.77960 149.95484 36160 ft 426 kts 236°
2026-05-05 07:22 -31.82011 149.90453 36171 ft 426 kts 236°
2026-05-05 07:23 -31.86096 149.85376 36157 ft 428 kts 236°
2026-05-05 07:23 -31.90186 149.80282 36182 ft 429 kts 236°
2026-05-05 07:24 -31.94286 149.75168 36165 ft 430 kts 236°
2026-05-05 07:24 -31.98384 149.70049 36166 ft 429 kts 236°
2026-05-05 07:25 -32.02476 149.64933 36162 ft 429 kts 236°
2026-05-05 07:25 -32.06563 149.59813 36176 ft 428 kts 236°
2026-05-05 07:26 -32.10643 149.54695 36167 ft 428 kts 236°
2026-05-05 07:26 -32.14718 149.49575 36167 ft 428 kts 236°
2026-05-05 07:27 -32.18787 149.44456 36167 ft 428 kts 236°
2026-05-05 07:27 -32.22825 149.39370 36172 ft 427 kts 236°
2026-05-05 07:28 -32.26885 149.34248 36176 ft 427 kts 236°
2026-05-05 07:28 -32.30946 149.29118 36172 ft 427 kts 236°
2026-05-05 07:29 -32.35006 149.23982 36167 ft 427 kts 236°
2026-05-05 07:29 -32.39061 149.18845 36172 ft 427 kts 236°
2026-05-05 07:30 -32.43116 149.13701 36188 ft 427 kts 236°
2026-05-05 07:30 -32.49202 149.05965 36171 ft 428 kts 236°
2026-05-05 07:31 -32.53260 149.00799 36178 ft 429 kts 235°
2026-05-05 07:31 -32.57323 148.95618 36177 ft 429 kts 235°
2026-05-05 07:32 -32.61388 148.90430 36188 ft 429 kts 235°
2026-05-05 07:32 -32.65450 148.85235 36183 ft 430 kts 235°
2026-05-05 07:33 -32.69519 148.80026 36180 ft 430 kts 235°
2026-05-05 07:33 -32.73559 148.74845 36196 ft 430 kts 235°
2026-05-05 07:34 -32.77625 148.69624 36206 ft 431 kts 234°
2026-05-05 07:34 -32.81696 148.64388 36199 ft 431 kts 235°
2026-05-05 07:35 -32.85762 148.59151 36192 ft 431 kts 235°
2026-05-05 07:35 -32.89833 148.53902 36193 ft 431 kts 235°
2026-05-05 07:36 -32.93899 148.48650 36195 ft 431 kts 235°
2026-05-05 07:36 -32.97960 148.43397 36205 ft 431 kts 234°
2026-05-05 07:37 -33.02021 148.38134 36199 ft 431 kts 234°
2026-05-05 07:37 -33.06074 148.32877 36200 ft 430 kts 234°
2026-05-05 07:38 -33.10120 148.27619 36201 ft 430 kts 234°
2026-05-05 07:38 -33.14379 148.22572 36198 ft 439 kts 223°
2026-05-05 07:39 -33.19433 148.18423 36210 ft 442 kts 221°
2026-05-05 07:39 -33.24538 148.14327 36201 ft 441 kts 221°
2026-05-05 07:40 -33.29575 148.10241 36234 ft 441 kts 221°
2026-05-05 07:40 -33.34633 148.06099 36211 ft 441 kts 221°
2026-05-05 07:41 -33.39686 148.01943 36210 ft 441 kts 221°
2026-05-05 07:41 -33.44734 147.97783 36214 ft 440 kts 221°
2026-05-05 07:42 -33.49778 147.93622 36222 ft 440 kts 221°
2026-05-05 07:42 -33.54823 147.89454 36212 ft 441 kts 221°
2026-05-05 07:43 -33.59868 147.85280 36216 ft 441 kts 221°
2026-05-05 07:43 -33.64913 147.81099 36214 ft 441 kts 221°
2026-05-05 07:44 -33.69961 147.76911 36224 ft 441 kts 220°
2026-05-05 07:44 -33.75011 147.72714 36218 ft 442 kts 220°
2026-05-05 07:45 -33.80060 147.68513 36219 ft 441 kts 220°
2026-05-05 07:45 -33.85107 147.64307 36215 ft 441 kts 220°
2026-05-05 07:46 -33.90154 147.60096 36221 ft 441 kts 220°
2026-05-05 07:46 -33.95196 147.55882 36220 ft 441 kts 220°
2026-05-05 07:47 -34.00198 147.51695 36220 ft 441 kts 220°
2026-05-05 07:47 -34.05234 147.47473 36226 ft 441 kts 220°
2026-05-05 07:48 -34.10262 147.43253 36206 ft 434 kts 220°
2026-05-05 07:48 -34.12707 147.41206 36203 ft 423 kts 220°
2026-05-05 07:48 -34.15128 147.39171 36222 ft 426 kts 220°
2026-05-05 07:49 -34.19236 147.35705 36254 ft 434 kts 220°
2026-05-05 07:49 -34.25032 147.30810 36230 ft 442 kts 219°
2026-05-05 07:50 -34.29227 147.27270 36225 ft 442 kts 219°
2026-05-05 07:50 -34.34271 147.23008 36234 ft 443 kts 219°
2026-05-05 07:51 -34.39318 147.18737 36239 ft 442 kts 219°
2026-05-05 07:51 -34.44352 147.14469 36224 ft 441 kts 219°
2026-05-05 07:52 -34.49363 147.10215 36221 ft 439 kts 219°
2026-05-05 07:52 -34.54346 147.05977 36247 ft 437 kts 219°
2026-05-05 07:53 -34.59313 147.01746 36227 ft 435 kts 219°
2026-05-05 07:53 -34.64258 146.97528 36227 ft 434 kts 219°
2026-05-05 07:54 -34.69184 146.93314 36230 ft 432 kts 220°
2026-05-05 07:54 -34.74066 146.89071 36243 ft 431 kts 220°
2026-05-05 07:55 -34.78960 146.84873 36226 ft 430 kts 220°
2026-05-05 07:55 -34.83849 146.80688 36224 ft 430 kts 220°
2026-05-05 07:56 -34.88737 146.76494 36247 ft 430 kts 220°
2026-05-05 07:56 -34.93631 146.72283 36235 ft 431 kts 220°
2026-05-05 07:57 -34.98498 146.68088 36233 ft 432 kts 220°
2026-05-05 07:57 -35.03401 146.63856 36229 ft 432 kts 220°
2026-05-05 07:58 -35.08315 146.59607 36241 ft 433 kts 220°
2026-05-05 07:58 -35.13232 146.55350 36229 ft 434 kts 220°
2026-05-05 07:59 -35.18146 146.51090 36229 ft 434 kts 220°
2026-05-05 07:59 -35.23062 146.46821 36248 ft 433 kts 220°
2026-05-05 08:00 -35.27978 146.42545 36229 ft 433 kts 220°
2026-05-05 08:00 -35.32875 146.38277 36227 ft 432 kts 220°
2026-05-05 08:01 -35.37762 146.33991 36225 ft 432 kts 220°
2026-05-05 08:01 -35.42642 146.29712 36226 ft 431 kts 220°
2026-05-05 08:02 -35.47514 146.25445 36225 ft 430 kts 220°
2026-05-05 08:02 -35.52379 146.21183 36224 ft 429 kts 220°
2026-05-05 08:03 -35.57233 146.16924 36228 ft 428 kts 220°
2026-05-05 08:03 -35.62044 146.12695 36224 ft 428 kts 220°
2026-05-05 08:04 -35.66882 146.08437 36226 ft 428 kts 220°
2026-05-05 08:04 -35.69316 146.06291 35794 ft 434 kts 220°
2026-05-05 08:04 -35.71757 146.04138 35456 ft 428 kts 219°
2026-05-05 08:05 -35.74167 146.02014 35001 ft 425 kts 219°
2026-05-05 08:05 -35.76559 145.99905 34589 ft 421 kts 219°
2026-05-05 08:05 -35.78908 145.97830 34165 ft 417 kts 219°
2026-05-05 08:05 -35.81258 145.95752 33681 ft 414 kts 219°
2026-05-05 08:06 -35.83588 145.93690 33240 ft 410 kts 219°
2026-05-05 08:06 -35.85893 145.91649 32824 ft 406 kts 219°
2026-05-05 08:06 -35.88171 145.89629 32425 ft 402 kts 218°
2026-05-05 08:06 -35.90433 145.87623 32021 ft 398 kts 218°
2026-05-05 08:07 -35.92672 145.85636 31617 ft 395 kts 218°
2026-05-05 08:07 -35.94893 145.83661 31230 ft 392 kts 217°
2026-05-05 08:07 -35.97091 145.81705 30831 ft 388 kts 217°
2026-05-05 08:07 -35.99272 145.79764 30455 ft 385 kts 217°
2026-05-05 08:08 -36.01443 145.77831 30024 ft 383 kts 217°
2026-05-05 08:08 -36.03589 145.75919 29605 ft 379 kts 217°
2026-05-05 08:08 -36.05715 145.74024 29188 ft 375 kts 216°
2026-05-05 08:08 -36.07821 145.72145 28806 ft 371 kts 216°
2026-05-05 08:09 -36.09877 145.70310 28401 ft 368 kts 216°
2026-05-05 08:09 -36.11941 145.68466 28024 ft 364 kts 216°
2026-05-05 08:09 -36.13985 145.66639 27634 ft 361 kts 216°
2026-05-05 08:09 -36.16013 145.64825 27253 ft 358 kts 216°
2026-05-05 08:10 -36.18023 145.63026 26884 ft 355 kts 216°
2026-05-05 08:10 -36.20019 145.61238 26508 ft 353 kts 216°
2026-05-05 08:10 -36.22012 145.59452 26145 ft 358 kts 215°
2026-05-05 08:10 -36.24103 145.57610 25785 ft 379 kts 215°
2026-05-05 08:11 -36.26278 145.55688 25367 ft 386 kts 215°
2026-05-05 08:11 -36.28445 145.53751 24948 ft 385 kts 215°
2026-05-05 08:11 -36.30601 145.51812 24533 ft 382 kts 215°
2026-05-05 08:11 -36.32743 145.49882 24130 ft 379 kts 215°
2026-05-05 08:12 -36.34868 145.47964 23707 ft 377 kts 215°
2026-05-05 08:12 -36.36980 145.46060 23255 ft 374 kts 216°
2026-05-05 08:12 -36.39074 145.44172 22819 ft 371 kts 216°
2026-05-05 08:12 -36.41152 145.42296 22425 ft 368 kts 216°
2026-05-05 08:13 -36.43213 145.40436 22032 ft 365 kts 216°
2026-05-05 08:13 -36.45258 145.38589 21640 ft 362 kts 216°
2026-05-05 08:13 -36.47286 145.36757 21259 ft 360 kts 216°
2026-05-05 08:13 -36.49306 145.34930 20878 ft 358 kts 216°
2026-05-05 08:14 -36.51317 145.33112 20506 ft 357 kts 216°
2026-05-05 08:14 -36.53320 145.31298 20127 ft 355 kts 216°
2026-05-05 08:14 -36.55317 145.29489 19748 ft 355 kts 216°
2026-05-05 08:14 -36.57309 145.27683 19371 ft 354 kts 216°
2026-05-05 08:15 -36.59293 145.25884 18991 ft 353 kts 216°
2026-05-05 08:15 -36.61278 145.24081 18615 ft 353 kts 216°
2026-05-05 08:15 -36.63260 145.22281 18197 ft 353 kts 216°
2026-05-05 08:15 -36.65239 145.20482 17783 ft 351 kts 216°
2026-05-05 08:16 -36.67207 145.18693 17392 ft 350 kts 216°
2026-05-05 08:16 -36.69133 145.16940 17002 ft 347 kts 216°
2026-05-05 08:16 -36.71079 145.15168 16635 ft 345 kts 216°
2026-05-05 08:16 -36.73014 145.13405 16265 ft 344 kts 216°
2026-05-05 08:17 -36.74936 145.11653 15894 ft 340 kts 216°
2026-05-05 08:17 -36.76835 145.09920 15528 ft 336 kts 216°
2026-05-05 08:17 -36.78715 145.08204 15169 ft 333 kts 216°
2026-05-05 08:17 -36.80572 145.06507 14812 ft 329 kts 216°
2026-05-05 08:18 -36.82412 145.04825 14452 ft 326 kts 216°
2026-05-05 08:18 -36.84233 145.03159 14107 ft 323 kts 216°
2026-05-05 08:18 -36.86039 145.01507 13720 ft 320 kts 216°
2026-05-05 08:18 -36.87827 144.99869 13342 ft 317 kts 216°
2026-05-05 08:19 -36.89599 144.98246 12986 ft 314 kts 216°
2026-05-05 08:19 -36.91351 144.96640 12636 ft 311 kts 216°
2026-05-05 08:19 -36.93089 144.95045 12298 ft 308 kts 216°
2026-05-05 08:19 -36.94807 144.93469 11957 ft 305 kts 216°
2026-05-05 08:20 -36.96511 144.91903 11622 ft 303 kts 216°
2026-05-05 08:20 -36.98196 144.90355 11296 ft 300 kts 216°
2026-05-05 08:20 -36.99875 144.88812 10972 ft 298 kts 216°
2026-05-05 08:20 -37.01540 144.87280 10598 ft 297 kts 216°
2026-05-05 08:21 -37.03199 144.85753 10316 ft 293 kts 216°
2026-05-05 08:21 -37.04821 144.84258 10139 ft 286 kts 216°
2026-05-05 08:21 -37.06396 144.82807 9985 ft 277 kts 217°
2026-05-05 08:21 -37.07919 144.81403 9941 ft 266 kts 217°
2026-05-05 08:22 -37.09433 144.80006 9405 ft 273 kts 217°
2026-05-05 08:22 -37.10961 144.78596 9241 ft 272 kts 217°
2026-05-05 08:22 -37.12502 144.77173 9142 ft 277 kts 217°
2026-05-05 08:22 -37.14050 144.75744 9029 ft 275 kts 217°
2026-05-05 08:23 -37.15584 144.74350 8961 ft 271 kts 212°
2026-05-05 08:23 -37.17325 144.73594 8860 ft 265 kts 187°
2026-05-05 08:23 -37.19146 144.73671 8452 ft 270 kts 173°
2026-05-05 08:23 -37.21041 144.74150 7996 ft 277 kts 169°
2026-05-05 08:24 -37.22887 144.74689 7633 ft 275 kts 169°
2026-05-05 08:24 -37.24745 144.75227 7194 ft 274 kts 169°
2026-05-05 08:24 -37.26618 144.75752 6659 ft 278 kts 169°
2026-05-05 08:24 -37.28505 144.76265 6229 ft 276 kts 169°
2026-05-05 08:25 -37.30359 144.76789 5897 ft 271 kts 169°
2026-05-05 08:25 -37.32207 144.77250 5603 ft 269 kts 171°
2026-05-05 08:25 -37.34033 144.77629 5364 ft 263 kts 172°
2026-05-05 08:25 -37.35828 144.77970 5238 ft 261 kts 173°
2026-05-05 08:26 -37.37626 144.78305 5117 ft 262 kts 173°
2026-05-05 08:26 -37.39423 144.78640 4924 ft 261 kts 172°
2026-05-05 08:26 -37.41211 144.78974 4624 ft 259 kts 172°
2026-05-05 08:26 -37.42983 144.79306 4352 ft 256 kts 173°
2026-05-05 08:27 -37.44737 144.79635 4088 ft 254 kts 172°
2026-05-05 08:27 -37.46466 144.79959 3923 ft 245 kts 172°
2026-05-05 08:27 -37.48105 144.80267 3810 ft 231 kts 173°
2026-05-05 08:27 -37.49668 144.80559 3561 ft 224 kts 173°
2026-05-05 08:28 -37.51191 144.80844 3280 ft 218 kts 173°
2026-05-05 08:28 -37.52670 144.81121 2989 ft 211 kts 172°
2026-05-05 08:28 -37.54104 144.81389 2703 ft 206 kts 173°
2026-05-05 08:28 -37.55498 144.81651 2429 ft 200 kts 173°
2026-05-05 08:29 -37.56860 144.81906 2160 ft 196 kts 173°
2026-05-05 08:29 -37.58192 144.82155 1902 ft 190 kts 173°
2026-05-05 08:29 -37.59468 144.82394 1639 ft 180 kts 173°
2026-05-05 08:30 -37.61776 144.82827 1170 ft 155 kts 173°
2026-05-05 08:30 -37.62824 144.83023 958 ft 151 kts 173°
2026-05-05 08:30 -37.63864 144.83217 765 ft 152 kts 173°
2026-05-05 08:30 -37.64920 144.83416 568 ft 155 kts 173°
2026-05-05 08:31 -37.65978 144.83613 417 ft 147 kts 173°
2026-05-05 08:31 -37.66843 144.83775 392 ft 73 kts 171°
2026-05-05 08:31 -37.67069 144.83889 383 ft 28 kts 142°
2026-05-05 08:31 -37.67172 144.83993 379 ft 14 kts 141°
2026-05-05 08:32 -37.67192 144.84016 378 ft 0 kts 133°
2026-05-05 08:33 -37.67206 144.84036 378 ft 7 kts 124°
2026-05-05 08:33 -37.67211 144.84057 378 ft 1 kts 95°
2026-05-05 08:33 -37.67210 144.84061 378 ft 0 kts 76°
2026-05-05 08:34 -37.67210 144.84070 378 ft 4 kts 92°
2026-05-05 08:34 -37.67222 144.84125 378 ft 7 kts 105°
2026-05-05 08:34 -37.67213 144.84185 379 ft 7 kts 52°
2026-05-05 08:34 -37.67173 144.84222 381 ft 7 kts 33°
2026-05-05 08:35 -37.67132 144.84250 382 ft 6 kts 19°
2026-05-05 08:35 -37.67069 144.84245 383 ft 11 kts 350°
2026-05-05 08:35 -37.66993 144.84231 385 ft 11 kts 351°
2026-05-05 08:35 -37.66911 144.84215 387 ft 13 kts 351°
2026-05-05 08:36 -37.66817 144.84196 390 ft 13 kts 351°
2026-05-05 08:36 -37.66732 144.84189 393 ft 11 kts 17°
2026-05-05 08:36 -37.66694 144.84262 395 ft 10 kts 80°
2026-05-05 08:36 -37.66684 144.84327 396 ft 8 kts 71°
2026-05-05 08:37 -37.66651 144.84364 395 ft 6 kts 21°
2026-05-05 08:37 -37.66596 144.84367 399 ft 11 kts 353°
2026-05-05 08:37 -37.66524 144.84380 402 ft 11 kts 54°
2026-05-05 08:37 -37.66506 144.84475 404 ft 11 kts 79°
2026-05-05 08:38 -37.66500 144.84572 405 ft 11 kts 86°
2026-05-05 08:38 -37.66488 144.84665 404 ft 11 kts 80°
2026-05-05 08:38 -37.66475 144.84760 407 ft 11 kts 80°
2026-05-05 08:38 -37.66462 144.84857 408 ft 11 kts 80°
2026-05-05 08:39 -37.66449 144.84950 408 ft 11 kts 80°
2026-05-05 08:39 -37.66471 144.85034 404 ft 11 kts 142°
2026-05-05 08:39 -37.66551 144.85059 404 ft 13 kts 169°
2026-05-05 08:39 -37.66612 144.85070 399 ft 14 kts 175°
2026-05-05 08:40 -37.66743 144.85088 394 ft 6 kts 178°
2026-05-05 08:40 -37.66759 144.85068 397 ft 4 kts 256°
2026-05-05 08:40 -37.66762 144.85042 396 ft 5 kts 261°
2026-05-05 08:40 -37.66765 144.85017 394 ft 0 kts 262°